This demonstration page uses our WeatherBlox Daily Observations layout. Learn more.

Left ArrowRight Arrow

Hourly Observations for July 31, 2016

Temp ( °F °C ) Dew Point ( °F °C ) Humidity (%) Winds ( mph kmh ) Pressure ( in mb ) Visibility ( mi km ) Precip ( " mm )
12:18 am 00:18 Clear 66 19 64 18 94 94 N N/A 30.00 1016 10 16 N/A
12:37 am 00:37 Clear 66 19 64 18 94 94 N N/A 30.00 1016 10 16 N/A
12:58 am 00:58 Clear 66 19 64 18 94 94 N N/A 30.00 1016 10 16 N/A
1:18 am 01:18 Clear 66 19 64 18 94 94 N N/A 30.00 1016 10 16 N/A
1:37 am 01:37 Clear 66 19 64 18 94 94 N N/A 30.00 1016 10 16 N/A
1:58 am 01:58 Partly Cloudy 64 18 64 18 100 100 N N/A 30.00 1016 10 16 N/A
2:18 am 02:18 Partly Cloudy 66 19 64 18 94 94 S 3 6 30.00 1016 10 16 N/A
2:37 am 02:37 Partly Cloudy 66 19 64 18 94 94 N N/A 30.00 1016 10 16 N/A
2:58 am 02:58 Clear 64 18 64 18 100 100 N N/A 30.00 1016 10 16 N/A
3:18 am 03:18 Mostly Cloudy 64 18 64 18 100 100 N N/A 30.00 1016 10 16 N/A
3:37 am 03:37 Cloudy 66 19 64 18 94 94 N N/A 30.00 1016 10 16 N/A
3:58 am 03:58 Cloudy 66 19 64 18 94 94 N N/A 30.00 1016 10 16 N/A
4:18 am 04:18 Mostly Cloudy 66 19 64 18 94 94 N N/A 30.00 1016 7 11 N/A
4:37 am 04:37 Partly Cloudy 66 19 64 18 94 94 N N/A 30.00 1016 10 16 N/A
4:58 am 04:58 Mostly Cloudy 64 18 64 18 100 100 N N/A 30.00 1016 10 16 N/A
5:18 am 05:18 Mostly Cloudy 66 19 64 18 94 94 N N/A 30.00 1016 10 16 N/A
5:37 am 05:37 Partly Cloudy 64 18 64 18 100 100 N N/A 30.00 1016 10 16 N/A
5:58 am 05:58 Clear 64 18 63 17 94 94 N N/A 30.00 1016 7 11 N/A
6:18 am 06:18 Clear 63 17 63 17 100 100 N N/A 30.00 1016 7 11 N/A
6:37 am 06:37 Clear 63 17 63 17 100 100 N N/A 30.00 1016 4 6 N/A
6:58 am 06:58 Sunny 63 17 63 17 100 100 N N/A 30.00 1016 5 8 N/A
7:18 am 07:18 Sunny 64 18 64 18 100 100 W 3 6 30.03 1017 5 8 N/A
7:37 am 07:37 Sunny 66 19 66 19 100 100 N N/A 30.03 1017 10 16 N/A
7:58 am 07:58 Sunny 68 20 66 19 94 94 N N/A 30.03 1017 7 11 N/A
8:18 am 08:18 Sunny 70 21 68 20 94 94 WSW 3 6 30.00 1016 10 16 N/A
8:38 am 08:38 Sunny 72 22 68 20 88 88 WSW 3 6 30.00 1016 10 16 N/A
8:58 am 08:58 Sunny 73 23 68 20 83 83 W 5 7 30.00 1016 10 16 N/A
9:18 am 09:18 Sunny 73 23 68 20 83 83 W 6 9 30.00 1016 10 16 N/A
9:38 am 09:38 Sunny 75 24 68 20 78 78 W 5 7 30.00 1016 10 16 N/A
9:58 am 09:58 Sunny 77 25 68 20 74 74 W 5 7 30.00 1016 10 16 N/A
10:18 am 10:18 Sunny 77 25 68 20 74 74 WNW 7 11 30.00 1016 10 16 N/A
10:38 am 10:38 Sunny 79 26 68 20 70 70 WNW 5 7 30.00 1016 10 16 N/A
10:58 am 10:58 Partly Cloudy 79 26 70 21 74 74 W 6 9 30.00 1016 10 16 N/A
11:18 am 11:18 Mostly Cloudy 79 26 68 20 70 70 W 6 9 30.00 1016 10 16 N/A
11:38 am 11:38 Partly Cloudy 79 26 68 20 70 70 WNW 6 9 30.00 1016 10 16 N/A
11:58 am 11:58 Partly Cloudy 79 26 68 20 70 70 W 5 7 30.00 1016 10 16 N/A
12:18 pm 12:18 Partly Cloudy 79 26 68 20 70 70 W 6 9 30.03 1017 10 16 N/A
12:38 pm 12:38 Partly Cloudy 82 28 68 20 62 62 N 3 6 30.03 1017 10 16 N/A
12:58 pm 12:58 Partly Cloudy 81 27 66 19 62 62 N 3 6 30.00 1016 10 16 N/A
1:18 pm 13:18 Partly Cloudy 79 26 68 20 70 70 N N/A 30.00 1016 10 16 N/A
1:38 pm 13:38 Partly Cloudy 82 28 68 20 62 62 NNW 7 11 30.00 1016 10 16 N/A
1:58 pm 13:58 Partly Cloudy 82 28 68 20 62 62 N N/A 30.00 1016 10 16 N/A
2:18 pm 14:18 Partly Cloudy 82 28 66 19 58 58 WNW 5 7 30.00 1016 10 16 N/A
2:38 pm 14:38 Mostly Cloudy 82 28 66 19 58 58 N N/A 30.00 1016 10 16 N/A
2:58 pm 14:58 Mostly Cloudy 82 28 68 20 62 62 N 6 9 30.00 1016 10 16 N/A
3:18 pm 15:18 Mostly Cloudy 82 28 68 20 62 62 NNE 7 11 30.00 1016 10 16 N/A
3:38 pm 15:38 Mostly Cloudy 81 27 70 21 70 70 NNE 7 11 30.00 1016 10 16 N/A
3:58 pm 15:58 Cloudy 81 27 70 21 70 70 NNE 7 11 30.00 1016 10 16 N/A
4:18 pm 16:18 Cloudy 81 27 70 21 70 70 NNE 3 6 30.00 1016 10 16 N/A
4:38 pm 16:38 Cloudy 79 26 70 21 74 74 ENE 5 7 30.00 1016 10 16 N/A
4:58 pm 16:58 Cloudy 79 26 70 21 74 74 NE 6 9 30.00 1016 10 16 N/A
5:18 pm 17:18 Cloudy 79 26 70 21 74 74 NNE 7 11 30.00 1016 10 16 N/A
5:38 pm 17:38 Cloudy 79 26 70 21 74 74 NE 8 13 30.00 1016 10 16 N/A
5:58 pm 17:58 Cloudy 79 26 70 21 74 74 NE 7 11 30.00 1016 10 16 N/A
6:18 pm 18:18 Cloudy 79 26 70 21 74 74 NE 8 13 29.97 1015 10 16 N/A
6:38 pm 18:38 Cloudy 79 26 70 21 74 74 NNE 5 7 30.00 1016 10 16 N/A
6:58 pm 18:58 Cloudy 75 24 70 21 83 83 S 5 7 30.00 1016 10 16 N/A
7:18 pm 19:18 Cloudy 77 25 70 21 79 79 SE 3 6 30.00 1016 10 16 N/A
7:38 pm 19:38 Mostly Cloudy 79 26 70 21 74 74 ENE 3 6 30.00 1016 10 16 N/A
8:18 pm 20:18 Partly Cloudy 77 25 70 21 79 79 NNE 6 9 30.00 1016 10 16 N/A
8:38 pm 20:38 Sunny 75 24 70 21 83 83 NE 5 7 30.00 1016 10 16 N/A
8:57 pm 20:57 Sunny 73 23 68 20 83 83 NE 3 6 30.00 1016 10 16 N/A
9:18 pm 21:18 Clear 73 23 68 20 83 83 N 3 6 30.00 1016 10 16 N/A
9:38 pm 21:38 Clear 72 22 68 20 88 88 N 6 9 30.00 1016 10 16 N/A
9:57 pm 21:57 Clear 70 21 68 20 94 94 N N/A 30.00 1016 10 16 N/A
10:18 pm 22:18 Clear 68 20 66 19 94 94 N N/A 30.06 1018 10 16 N/A
10:38 pm 22:38 Clear 68 20 66 19 94 94 N N/A 30.06 1018 10 16 N/A
10:58 pm 22:58 Clear 66 19 66 19 100 100 N N/A 30.06 1018 10 16 N/A
11:18 pm 23:18 Clear 68 20 66 19 94 94 N N/A 30.06 1018 10 16 N/A
11:38 pm 23:38 Clear 70 21 66 19 88 88 N N/A 30.06 1018 10 16 N/A
11:58 pm 23:58 Clear 68 20 66 19 94 94 N N/A 30.06 1018 10 16 N/A

Powered by AerisWeather